TimeCDT,TemperatureF,Dew PointF,Humidity,Sea Level PressureIn,VisibilityMPH,Wind Direction,Wind SpeedMPH,Gust SpeedMPH,PrecipitationIn,Events,Conditions,WindDirDegrees,DateUTC
12:55 AM,41.0,37.9,89,29.75,10.0,North,3.5,-,N/A,,Mostly Cloudy,360,2012-10-20 05:55:00
1:55 AM,39.9,37.0,89,29.76,10.0,Calm,Calm,-,N/A,,Mostly Cloudy,0,2012-10-20 06:55:00
2:45 AM,37.4,35.6,93,29.73,10.0,Calm,Calm,-,N/A,,Scattered Clouds,0,2012-10-20 07:45:00
2:55 AM,37.0,35.1,93,29.77,5.0,Calm,Calm,-,N/A,Fog,Patches of Fog,0,2012-10-20 07:55:00
3:04 AM,35.6,35.6,100,29.73,1.0,Calm,Calm,-,N/A,,Scattered Clouds,0,2012-10-20 08:04:00
3:20 AM,35.6,33.8,93,29.73,0.8,Calm,Calm,-,N/A,,Scattered Clouds,0,2012-10-20 08:20:00
3:29 AM,35.6,33.8,93,29.73,0.5,Calm,Calm,-,N/A,Fog,Fog,0,2012-10-20 08:29:00
3:55 AM,34.0,33.1,96,29.77,0.5,Calm,Calm,-,N/A,Fog,Fog,0,2012-10-20 08:55:00
4:17 AM,33.8,32.0,93,29.73,0.2,Calm,Calm,-,N/A,Fog,Fog,0,2012-10-20 09:17:00
4:25 AM,33.8,32.0,93,29.73,0.5,Calm,Calm,-,N/A,Fog,Fog,0,2012-10-20 09:25:00
4:39 AM,32.0,30.2,93,29.73,0.2,Calm,Calm,-,N/A,Fog,Fog,0,2012-10-20 09:39:00
4:55 AM,33.1,30.9,92,29.78,0.2,Calm,Calm,-,N/A,Fog,Fog,0,2012-10-20 09:55:00
5:04 AM,30.2,28.4,93,29.73,0.2,Calm,Calm,-,N/A,Fog,Light Freezing Fog,0,2012-10-20 10:04:00
5:18 AM,30.2,28.4,93,29.74,0.2,WNW,3.5,-,N/A,Fog,Light Freezing Fog,300,2012-10-20 10:18:00
5:23 AM,30.2,28.4,93,29.74,0.5,NW,4.6,-,N/A,Fog,Light Freezing Fog,310,2012-10-20 10:23:00
5:32 AM,32.0,30.2,93,29.74,0.2,Calm,Calm,-,N/A,Fog,Fog,0,2012-10-20 10:32:00
5:46 AM,30.2,28.4,93,29.75,0.2,Calm,Calm,-,N/A,Fog,Light Freezing Fog,0,2012-10-20 10:46:00
5:55 AM,30.9,28.9,92,29.79,0.2,Calm,Calm,-,N/A,Fog,Light Freezing Fog,0,2012-10-20 10:55:00
6:15 AM,32.0,30.2,93,29.75,0.2,Calm,Calm,-,N/A,Fog,Fog,0,2012-10-20 11:15:00
6:21 AM,32.0,30.2,93,29.75,0.5,NNW,3.5,-,N/A,Fog,Fog,330,2012-10-20 11:21:00
6:39 AM,32.0,30.2,93,29.76,0.5,NNW,3.5,-,N/A,Fog,Fog,330,2012-10-20 11:39:00
6:55 AM,33.1,30.9,92,29.80,0.5,Calm,Calm,-,N/A,Fog,Fog,0,2012-10-20 11:55:00
7:02 AM,32.0,30.2,93,29.76,0.2,Calm,Calm,-,N/A,Fog,Fog,0,2012-10-20 12:02:00
7:12 AM,32.0,30.2,93,29.76,0.2,NE,3.5,-,N/A,Fog,Fog,40,2012-10-20 12:12:00
7:27 AM,32.0,30.2,93,29.76,0.2,Calm,Calm,-,N/A,Fog,Fog,0,2012-10-20 12:27:00
7:55 AM,30.9,28.9,92,29.82,0.2,Calm,Calm,-,N/A,Fog,Light Freezing Fog,0,2012-10-20 12:55:00
8:03 AM,30.2,28.4,93,29.77,0.5,Calm,Calm,-,N/A,Fog,Light Freezing Fog,0,2012-10-20 13:03:00
8:16 AM,32.0,30.2,93,29.77,0.8,Calm,Calm,-,N/A,,Partly Cloudy,0,2012-10-20 13:16:00
8:52 AM,33.8,33.8,100,29.77,0.2,Calm,Calm,-,N/A,Fog,Fog,0,2012-10-20 13:52:00
8:55 AM,33.1,33.1,100,29.83,0.2,Calm,Calm,-,N/A,Fog,Fog,0,2012-10-20 13:55:00
9:01 AM,33.8,33.8,100,29.77,0.5,Calm,Calm,-,N/A,Fog,Fog,0,2012-10-20 14:01:00
9:05 AM,35.6,35.6,100,29.78,0.5,Calm,Calm,-,N/A,Fog,Fog,0,2012-10-20 14:05:00
9:34 AM,41.0,39.2,93,29.77,0.8,Calm,Calm,-,N/A,,Scattered Clouds,0,2012-10-20 14:34:00
9:42 AM,42.8,41.0,93,29.78,5.0,Calm,Calm,-,N/A,,Scattered Clouds,0,2012-10-20 14:42:00
9:55 AM,43.0,41.0,93,29.82,7.0,Calm,Calm,-,N/A,,Partly Cloudy,0,2012-10-20 14:55:00
10:55 AM,48.9,39.9,71,29.81,10.0,Calm,Calm,-,N/A,,Clear,0,2012-10-20 15:55:00
11:55 AM,52.0,37.9,59,29.79,10.0,Calm,Calm,-,N/A,,Scattered Clouds,0,2012-10-20 16:55:00
12:55 PM,51.1,37.9,61,29.81,10.0,SSE,9.2,-,N/A,,Scattered Clouds,160,2012-10-20 17:55:00
1:55 PM,51.1,37.0,59,29.79,10.0,South,6.9,-,N/A,,Scattered Clouds,190,2012-10-20 18:55:00
2:55 PM,51.1,37.0,59,29.79,10.0,South,9.2,-,N/A,,Scattered Clouds,180,2012-10-20 19:55:00
3:55 PM,53.1,37.9,57,29.79,10.0,SSW,9.2,-,N/A,,Mostly Cloudy,200,2012-10-20 20:55:00
4:55 PM,51.1,37.9,61,29.80,10.0,SSE,5.8,-,N/A,,Partly Cloudy,160,2012-10-20 21:55:00
5:55 PM,48.0,39.0,71,29.80,10.0,SE,5.8,-,N/A,,Partly Cloudy,130,2012-10-20 22:55:00
6:55 PM,46.0,37.9,73,29.81,10.0,SE,4.6,-,N/A,,Mostly Cloudy,130,2012-10-20 23:55:00
7:55 PM,43.0,37.9,82,29.81,10.0,SE,4.6,-,N/A,,Partly Cloudy,130,2012-10-21 00:55:00
8:55 PM,41.0,37.4,87,29.78,10.0,SSE,3.5,-,N/A,,Clear,150,2012-10-21 01:55:00
9:55 PM,44.1,37.9,79,29.81,10.0,SSE,5.8,-,N/A,,Clear,160,2012-10-21 02:55:00
10:55 PM,43.0,37.0,80,29.82,10.0,SSE,5.8,-,N/A,,Clear,150,2012-10-21 03:55:00
11:55 PM,42.1,37.0,82,29.83,10.0,South,3.5,-,N/A,,Clear,180,2012-10-21 04:55:00